K7CTM Weather Reports


time (UTC)temp
C
wind
direction
speed
KPH
gust
KPH
rain 1hr
cm
rain 24hr
cm
rain mn
cm
humidity
%
barometer
mb
20260502170424 18 166 1.6 3.2 0.00 0.00 0.00 32 1028.3
20260502163907 15 251 3.2 4.8 0.00 0.00 0.00 35 1028.5
20260502163403 15 233 1.6 1.6 0.00 0.00 0.00 37 1028.3
20260502162901 15 271 3.2 3.2 0.00 0.00 0.00 35 1028.6
20260502162358 14 238 3.2 4.8 0.00 0.00 0.00 36 1028.7
20260502161855 14 229 9.7 9.7 0.00 0.00 0.00 35 1028.6
20260502161351 14 241 3.2 3.2 0.00 0.00 0.00 34 1028.6
20260502160849 13 271 6.4 6.4 0.00 0.00 0.00 35 1028.5
20260502160347 13 302 6.4 6.4 0.00 0.00 0.00 34 1028.7
20260502152322 11 295 4.8 4.8 0.00 0.00 0.00 39 1028.8
20260502151820 11 314 6.4 6.4 0.00 0.00 0.00 39 1028.9
20260502151316 10 271 3.2 3.2 0.00 0.00 0.00 39 1028.9
20260502150814 10 257 6.4 6.4 0.00 0.00 0.00 40 1028.9
20260502150310 10 240 4.8 4.8 0.00 0.00 0.00 44 1028.9
20260502130659 2 199 3.2 3.2 0.00 0.00 0.00 59 1028.6
20260502130156 2 206 3.2 3.2 0.00 0.00 0.00 60 1028.5
20260502123642 1 218 4.8 4.8 0.00 0.00 0.00 61 1028.1
20260502123139 1 238 4.8 4.8 0.00 0.00 0.00 62 1028.1
20260502122635 1 232 3.2 3.2 0.00 0.00 0.00 63 1028.1
20260502122132 1 226 4.8 4.8 0.00 0.00 0.00 63 1028.0
20260502121630 1 232 3.2 4.8 0.00 0.00 0.00 63 1028.1
20260502121127 1 214 1.6 1.6 0.00 0.00 0.00 65 1027.9
20260502120623 1 206 1.6 1.6 0.00 0.00 0.00 66 1027.8
20260502120120 1 230 3.2 3.2 0.00 0.00 0.00 66 1027.8
20260502115618 1 220 4.8 4.8 0.00 0.00 0.00 65 1027.8
20260502115114 1 235 3.2 3.2 0.00 0.00 0.00 65 1027.7
20260502114610 1 241 4.8 4.8 0.00 0.00 0.00 65 1027.7
20260502114108 1 243 6.4 6.4 0.00 0.00 0.00 65 1027.7
20260502113605 1 259 8.0 9.7 0.00 0.00 0.00 67 1027.5
20260502113104 1 253 8.0 9.7 0.00 0.00 0.00 66 1027.3
20260502112601 1 252 9.7 11.3 0.00 0.00 0.00 66 1027.7
20260502112058 1 256 9.7 11.3 0.00 0.00 0.00 65 1027.4
20260502111555 1 251 9.7 11.3 0.00 0.00 0.00 66 1027.8
20260502111053 1 259 9.7 11.3 0.00 0.00 0.00 66 1027.7
20260502110550 1 249 8.0 9.7 0.00 0.00 0.00 66 1027.8
20260502110048 1 251 8.0 9.7 0.00 0.00 0.00 65 1027.7
20260502105545 1 246 9.7 11.3 0.00 0.00 0.00 65 1027.7
20260502105042 1 253 9.7 9.7 0.00 0.00 0.00 65 1027.9
20260502104539 1 256 8.0 9.7 0.00 0.00 0.00 65 1027.8
20260502104037 1 249 8.0 9.7 0.00 0.00 0.00 66 1027.5
20260502103534 1 249 6.4 6.4 0.00 0.00 0.00 65 1027.5
20260502103032 1 246 8.0 9.7 0.00 0.00 0.00 65 1027.7
20260502102528 1 254 4.8 4.8 0.00 0.00 0.00 65 1027.5
20260502102025 2 249 4.8 4.8 0.00 0.00 0.00 63 1027.4
20260502101523 2 250 6.4 6.4 0.00 0.00 0.00 63 1027.4
20260502101022 2 248 4.8 4.8 0.00 0.00 0.00 63 1027.5
20260502100520 2 243 6.4 6.4 0.00 0.00 0.00 62 1027.4
20260502091454 3 235 4.8 4.8 0.00 0.00 0.00 58 1027.5
20260502090951 4 249 6.4 6.4 0.00 0.00 0.00 56 1027.5
20260502090448 5 254 6.4 6.4 0.00 0.00 0.00 53 1027.4
20260502071343 6 228 1.6 3.2 0.00 0.00 0.00 48 1027.9
20260502070841 7 252 0.0 0.0 0.00 0.00 0.00 46 1027.9
20260502070338 7 311 1.6 3.2 0.00 0.00 0.00 44 1027.7
20260502065837 8 235 3.2 3.2 0.00 0.00 0.00 41 1027.8
20260502065335 7 233 1.6 1.6 0.00 0.00 0.00 42 1027.8
20260502064832 8 210 3.2 3.2 0.00 0.00 0.00 42 1027.8
20260502064330 8 222 3.2 3.2 0.00 0.00 0.00 41 1027.7
20260502063827 8 240 3.2 3.2 0.00 0.00 0.00 41 1027.7
20260502063325 8 223 3.2 3.2 0.00 0.00 0.00 41 1027.8
20260502062822 8 219 3.2 3.2 0.00 0.00 0.00 42 1027.9
20260502062320 8 218 1.6 1.6 0.00 0.00 0.00 42 1027.8
20260502061818 8 232 0.0 0.0 0.00 0.00 0.00 42 1027.9
20260502061316 8 229 0.0 0.0 0.00 0.00 0.00 41 1027.9
20260502060811 8 237 0.0 0.0 0.00 0.00 0.00 41 1027.9
20260502060306 8 245 0.0 0.0 0.00 0.00 0.00 44 1027.9
20260502055804 8 241 0.0 0.0 0.00 0.00 0.00 43 1027.8
20260502055305 8 256 0.0 0.0 0.00 0.00 0.00 43 1027.9
20260502054801 8 259 0.0 0.0 0.00 0.00 0.00 42 1027.8
20260502054258 8 247 0.0 0.0 0.00 0.00 0.00 44 1027.9
20260502053756 9 259 1.6 1.6 0.00 0.00 0.00 42 1027.9
20260502053253 10 263 0.0 0.0 0.00 0.00 0.00 40 1028.0
20260502052751 10 272 0.0 0.0 0.00 0.00 0.00 39 1027.8
20260502052249 10 294 1.6 3.2 0.00 0.00 0.00 38 1027.5
20260502051746 10 263 3.2 3.2 0.00 0.00 0.00 38 1027.9
20260502051245 10 241 3.2 3.2 0.00 0.00 0.00 40 1027.8
20260502050741 9 247 3.2 3.2 0.00 0.00 0.00 44 1027.7
20260502050236 10 253 1.6 3.2 0.00 0.00 0.00 43 1027.7
20260502045734 10 235 3.2 3.2 0.00 0.00 0.00 41 1027.9
20260502045231 11 238 3.2 3.2 0.00 0.00 0.00 37 1027.7
20260502044728 10 249 1.6 1.6 0.00 0.00 0.00 36 1027.7
20260502044224 10 242 0.0 0.0 0.00 0.00 0.00 37 1027.8
20260502043721 10 241 0.0 0.0 0.00 0.00 0.00 36 1027.9
20260502043219 11 252 0.0 0.0 0.00 0.00 0.00 35 1027.8
20260502042718 11 308 1.6 1.6 0.00 0.00 0.00 34 1027.7
20260502042216 11 290 1.6 1.6 0.00 0.00 0.00 33 1027.7
20260502041713 12 231 0.0 0.0 0.00 0.00 0.00 32 1027.7
20260502041210 13 239 0.0 0.0 0.00 0.00 0.00 32 1027.8
20260502040707 13 222 0.0 0.0 0.00 0.00 0.00 29 1027.7
20260502040204 13 199 0.0 0.0 0.00 0.00 0.00 30 1027.5
20260502035700 13 296 3.2 3.2 0.00 0.00 0.00 30 1027.7
20260502035157 14 99 1.6 1.6 0.00 0.00 0.00 29 1027.5
20260502034655 13 253 0.0 0.0 0.00 0.00 0.00 29 1027.7
20260502034153 14 248 0.0 0.0 0.00 0.00 0.00 29 1027.5
20260502033650 15 252 3.2 3.2 0.00 0.00 0.00 29 1027.5
20260502033148 15 28 0.0 1.6 0.00 0.00 0.00 27 1027.5
20260502032644 16 302 1.6 1.6 0.00 0.00 0.00 26 1027.4
20260502032140 16 170 1.6 1.6 0.00 0.00 0.00 24 1027.5
20260502031638 15 206 0.0 0.0 0.00 0.00 0.00 25 1027.5
20260502031136 16 218 0.0 0.0 0.00 0.00 0.00 24 1027.3
20260502030635 16 97 3.2 3.2 0.00 0.00 0.00 23 1027.3
20260502030133 17 149 4.8 4.8 0.00 0.00 0.00 22 1027.2
20260502025629 16 154 4.8 4.8 0.00 0.00 0.00 23 1027.2
20260502025127 17 292 0.0 0.0 0.00 0.00 0.00 25 1027.1
20260502024625 18 149 6.4 6.4 0.00 0.00 0.00 21 1027.0
20260502024123 18 158 6.4 6.4 0.00 0.00 0.00 20 1027.1
20260502023621 18 147 9.7 9.7 0.00 0.00 0.00 20 1027.1
20260502023118 18 150 8.0 9.7 0.00 0.00 0.00 19 1027.1
20260502022614 18 150 4.8 4.8 0.00 0.00 0.00 18 1026.9
20260502022112 18 212 1.6 1.6 0.00 0.00 0.00 19 1027.0
20260502021609 19 249 0.0 0.0 0.00 0.00 0.00 19 1027.0
20260502021106 20 257 0.0 0.0 0.00 0.00 0.00 19 1027.1
20260502020603 20 265 1.6 1.6 0.00 0.00 0.00 18 1027.1
20260502020100 20 269 0.0 0.0 0.00 0.00 0.00 18 1027.2
20260502015558 20 252 0.0 0.0 0.00 0.00 0.00 18 1026.9
20260502015054 20 245 0.0 0.0 0.00 0.00 0.00 17 1027.0
20260502014551 20 241 0.0 0.0 0.00 0.00 0.00 17 1027.0
20260502014048 21 236 0.0 0.0 0.00 0.00 0.00 16 1026.9
20260502013543 21 249 0.0 0.0 0.00 0.00 0.00 16 1026.9
20260502013040 20 275 1.6 1.6 0.00 0.00 0.00 16 1026.9
20260502012537 21 302 1.6 1.6 0.00 0.00 0.00 16 1026.9
20260502012035 21 248 0.0 0.0 0.00 0.00 0.00 16 1026.9
20260502011532 21 247 0.0 0.0 0.00 0.00 0.00 16 1026.8
20260502011028 21 293 4.8 4.8 0.00 0.00 0.00 17 1026.9
20260502010526 22 247 0.0 1.6 0.00 0.00 0.00 16 1026.8
20260502010021 21 254 0.0 1.6 0.00 0.00 0.00 18 1026.6
20260502005520 21 170 0.0 0.0 0.00 0.00 0.00 16 1027.0
20260502005017 21 277 0.0 1.6 0.00 0.00 0.00 17 1026.9
20260502004512 21 273 3.2 4.8 0.00 0.00 0.00 18 1026.9
20260502004009 21 354 6.4 6.4 0.00 0.00 0.00 19 1027.1
20260502003507 21 252 1.6 3.2 0.00 0.00 0.00 19 1026.9
20260502003004 21 34 3.2 4.8 0.00 0.00 0.00 17 1027.1
20260502002500 21 253 3.2 4.8 0.00 0.00 0.00 17 1026.8
20260502001958 21 275 6.4 9.7 0.00 0.00 0.00 17 1027.0
20260502001455 21 279 1.6 1.6 0.00 0.00 0.00 17 1026.9
20260502000953 21 312 3.2 3.2 0.00 0.00 0.00 16 1027.1
20260502000454 21 272 9.7 11.3 0.00 0.00 0.00 16 1027.2
20260501235947 21 281 6.4 6.4 0.00 0.00 0.00 16 1027.0
20260501235443 21 238 1.6 3.2 0.00 0.00 0.00 17 1027.0
20260501234938 21 264 9.7 11.3 0.00 0.00 0.00 17 1027.2
20260501234435 21 298 3.2 3.2 0.00 0.00 0.00 17 1027.1
20260501233934 21 295 3.2 3.2 0.00 0.00 0.00 17 1027.2
20260501233431 21 255 0.0 0.0 0.00 0.00 0.00 20 1027.2
20260501232927 21 341 3.2 3.2 0.00 0.00 0.00 18 1027.3
20260501232424 21 282 0.0 0.0 0.00 0.00 0.00 20 1027.3
20260501231921 21 272 1.6 1.6 0.00 0.00 0.00 15 1027.3
20260501231420 21 271 1.6 3.2 0.00 0.00 0.00 16 1027.2
20260501230917 21 272 0.0 1.6 0.00 0.00 0.00 17 1027.3
20260501230416 21 117 4.8 4.8 0.00 0.00 0.00 17 1027.4
20260501225913 21 259 1.6 1.6 0.00 0.00 0.00 22 1027.5
20260501225410 21 8 6.4 6.4 0.00 0.00 0.00 21 1027.3
20260501224906 21 5 6.4 12.9 0.00 0.00 0.00 21 1027.5
20260501224404 21 250 3.2 6.4 0.00 0.00 0.00 21 1027.5
20260501223900 21 262 4.8 6.4 0.00 0.00 0.00 21 1027.4
20260501223356 21 359 1.6 3.2 0.00 0.00 0.00 20 1027.5
20260501222852 22 321 8.0 11.3 0.00 0.00 0.00 20 1027.4
20260501222350 21 246 0.0 0.0 0.00 0.00 0.00 19 1027.7
20260501221846 22 18 6.4 6.4 0.00 0.00 0.00 21 1027.7
20260501221343 21 239 6.4 6.4 0.00 0.00 0.00 21 1027.8
20260501220842 21 20 8.0 12.9 0.00 0.00 0.00 18 1027.8
20260501220339 21 274 4.8 6.4 0.00 0.00 0.00 20 1027.9
20260501215835 21 268 3.2 3.2 0.00 0.00 0.00 18 1027.9
20260501215331 20 264 6.4 6.4 0.00 0.00 0.00 18 1027.9
20260501214827 20 313 11.3 12.9 0.00 0.00 0.00 19 1028.2
20260501214322 21 302 12.9 17.7 0.00 0.00 0.00 22 1028.0
20260501213819 21 270 3.2 4.8 0.00 0.00 0.00 19 1028.1
20260501213315 20 238 1.6 1.6 0.00 0.00 0.00 22 1028.2
20260501212811 20 305 9.7 11.3 0.00 0.00 0.00 23 1028.6
20260501212308 21 234 1.6 3.2 0.00 0.00 0.00 21 1028.2
20260501211805 20 4 3.2 3.2 0.00 0.00 0.00 19 1028.2
20260501211302 20 303 9.7 12.9 0.00 0.00 0.00 22 1028.5
20260501210759 20 8 4.8 4.8 0.00 0.00 0.00 19 1028.5
20260501210255 21 309 9.7 12.9 0.00 0.00 0.00 21 1028.6
20260501205751 20 264 4.8 6.4 0.00 0.00 0.00 21 1028.6
20260501205249 20 107 4.8 4.8 0.00 0.00 0.00 21 1028.3
20260501204746 20 333 4.8 4.8 0.00 0.00 0.00 22 1028.5
20260501204243 20 16 4.8 6.4 0.00 0.00 0.00 23 1028.5
20260501203739 20 310 3.2 4.8 0.00 0.00 0.00 21 1028.5
20260501203236 20 268 1.6 1.6 0.00 0.00 0.00 20 1028.8
20260501202733 19 217 3.2 4.8 0.00 0.00 0.00 22 1028.6
20260501202230 20 229 4.8 6.4 0.00 0.00 0.00 22 1028.7
20260501201727 20 326 9.7 9.7 0.00 0.00 0.00 24 1028.7
20260501201224 20 24 4.8 6.4 0.00 0.00 0.00 20 1028.6
20260501200720 19 307 14.5 16.1 0.00 0.00 0.00 20 1028.8
20260501200218 19 268 12.9 16.1 0.00 0.00 0.00 20 1028.7
20260501195715 19 204 3.2 4.8 0.00 0.00 0.00 28 1028.8
20260501195211 18 284 4.8 6.4 0.00 0.00 0.00 24 1028.9
20260501194707 19 222 16.1 17.7 0.00 0.00 0.00 21 1028.8
20260501194202 19 207 1.6 1.6 0.00 0.00 0.00 26 1029.0
20260501193659 18 323 4.8 6.4 0.00 0.00 0.00 22 1029.1
20260501193158 18 296 8.0 9.7 0.00 0.00 0.00 22 1029.0
20260501192655 18 254 9.7 11.3 0.00 0.00 0.00 21 1029.1
20260501192152 18 261 9.7 11.3 0.00 0.00 0.00 23 1029.0
20260501191649 18 302 9.7 11.3 0.00 0.00 0.00 21 1029.2
20260501191147 18 269 9.7 14.5 0.00 0.00 0.00 24 1029.1
20260501190643 18 300 8.0 9.7 0.00 0.00 0.00 21 1029.1
20260501190138 17 259 9.7 9.7 0.00 0.00 0.00 24 1029.2
20260501185634 17 294 16.1 16.1 0.00 0.00 0.00 23 1029.2
20260501185130 18 266 12.9 16.1 0.00 0.00 0.00 24 1029.2
20260501184627 17 317 9.7 11.3 0.00 0.00 0.00 23 1029.2
20260501184121 17 283 8.0 11.3 0.00 0.00 0.00 26 1029.6
20260501183618 17 209 20.9 24.1 0.00 0.00 0.00 24 1029.2
20260501183115 17 232 8.0 9.7 0.00 0.00 0.00 24 1029.4
20260501182611 17 298 9.7 14.5 0.00 0.00 0.00 26 1029.5
20260501182108 17 208 8.0 11.3 0.00 0.00 0.00 25 1029.6
20260501181606 18 243 19.3 20.9 0.00 0.00 0.00 26 1029.6
20260501181102 18 25 3.2 3.2 0.00 0.00 0.00 26 1029.6
20260501180600 17 295 8.0 11.3 0.00 0.00 0.00 25 1029.5
20260501180056 17 286 4.8 6.4 0.00 0.00 0.00 27 1029.7
20260501175553 17 266 9.7 12.9 0.00 0.00 0.00 28 1029.5